Waarnemingen

Advertentie
Mijn weer
Spa/La Sauveniere, België (6490): temperatuur & dauwpunt: 21.01.2020 21:00:00 - 27.01.2020 21:00:00 (CET)Spa/La Sauveniere, België (6490): windsnelheid & windstoten: 21.01.2020 21:00:00 - 27.01.2020 21:00:00 (CET)Spa/La Sauveniere, België (6490): windrichting: 21.01.2020 21:00:00 - 27.01.2020 21:00:00 (CET)Spa/La Sauveniere, België (6490): luchtdruk: 21.01.2020 21:00:00 - 27.01.2020 21:00:00 (CET)Spa/La Sauveniere, België (6490): zicht: 21.01.2020 21:00:00 - 27.01.2020 21:00:00 (CET)
Datum & Tijd tt [°C] td [°C] ff [km/u] ff [kn] fx [km/u] fx [kn] dd ppp [hPa] vv [km]
27.01.2020 21:00:00 4,6 3,1 22 12 43 23 Z 1000,6 45
27.01.2020 20:00:00 4,9 3,4 22 12 40 21 Z 1001,7 45
27.01.2020 19:00:00 5,2 3,7 18 10 - - ZZW 1003,2 17
27.01.2020 18:00:00 5,2 3,9 11 6 22 12 Z 1004,1 26
27.01.2020 17:00:00 5,0 3,5 11 6 22 12 Z 1005,1 6
27.01.2020 16:00:00 4,6 3,3 14 8 - - Z 1005,9 50
27.01.2020 15:00:00 4,7 3,7 11 6 36 19 W 1006,8 8
27.01.2020 14:00:00 5,0 3,3 18 10 36 19 Z 1007,3 8
27.01.2020 13:00:00 5,5 4,0 18 10 - - ZW 1008,2 14
27.01.2020 12:00:00 5,6 4,2 18 10 32 18 ZZW 1008,7 15
27.01.2020 11:00:00 5,4 4,0 18 10 32 18 Z 1009,2 29
27.01.2020 10:00:00 5,3 4,0 22 12 - - ZZW 1009,8 12
27.01.2020 09:00:00 5,2 4,0 18 10 32 18 Z 1010,1 17
27.01.2020 08:00:00 5,0 3,8 18 10 43 23 Z 1010,6 22
27.01.2020 07:00:00 4,8 3,5 25 14 - - Z 1011,0 11
27.01.2020 06:00:00 4,7 3,2 25 14 43 23 Z 1011,5 11
27.01.2020 05:00:00 5,2 4,8 18 10 32 18 ZZW 1012,0 8
27.01.2020 04:00:00 5,5 5,4 18 10 - - ZZW 1012,5 17
27.01.2020 03:00:00 5,3 3,6 18 10 47 25 Z 1013,2 20
27.01.2020 02:00:00 4,9 2,3 22 12 40 21 Z 1013,5 19
27.01.2020 01:00:00 4,6 3,1 22 12 - - Z 1014,1 18
27.01.2020 00:00:00 4,5 1,1 18 10 32 18 Z 1014,6 15
26.01.2020 23:00:00 4,7 3,2 22 12 32 18 Z 1014,7 13
26.01.2020 22:00:00 4,8 3,3 14 8 - - Z 1015,4 -
26.01.2020 21:00:00 4,6 3,0 22 12 36 19 Z 1015,7 -
26.01.2020 20:00:00 4,4 2,8 22 12 36 19 Z 1016,0 -
26.01.2020 19:00:00 4,1 2,7 18 10 - - Z 1015,9 -
26.01.2020 18:00:00 4,2 3,1 18 10 32 18 Z 1015,9 10
26.01.2020 17:00:00 4,8 2,0 22 12 32 18 Z 1015,9 12
26.01.2020 16:00:00 5,3 2,5 18 10 - - Z 1015,9 16
26.01.2020 15:00:00 5,4 2,5 18 10 32 18 ZZO 1016,1 17
26.01.2020 14:00:00 3,8 1,6 22 12 36 19 ZZO 1017,0 9
26.01.2020 13:00:00 3,8 1,4 22 12 - - ZZO 1017,2 -
26.01.2020 12:00:00 3,2 0,8 18 10 40 21 Z 1017,9 5
26.01.2020 11:00:00 2,2 1,0 22 12 36 19 ZZO 1018,4 2,3
26.01.2020 10:00:00 2,0 0,7 25 14 - - ZZO 1018,0 2,6
26.01.2020 09:00:00 2,1 0,7 25 14 36 19 ZZO 1018,1 4,9
26.01.2020 08:00:00 3,1 1,8 25 14 32 18 ZZO 1017,5 -
26.01.2020 07:00:00 3,0 0,1 25 14 - - ZZO 1017,6 -
26.01.2020 06:00:00 3,2 1,9 25 14 36 19 ZZO 1017,7 -
26.01.2020 05:00:00 3,3 1,6 25 14 36 19 ZZO 1017,8 -
26.01.2020 04:00:00 3,4 2,2 22 12 - - ZZO 1018,3 14
26.01.2020 03:00:00 3,4 1,5 22 12 32 18 ZZO 1019,0 19
26.01.2020 02:00:00 3,8 2,8 22 12 29 16 ZZO 1019,2 20
26.01.2020 01:00:00 3,8 0,6 22 12 - - ZZO 1019,6 25
26.01.2020 00:00:00 3,5 0,1 22 12 32 18 ZZO 1019,8 40
25.01.2020 23:00:00 2,7 -0,3 25 14 32 18 ZZO 1020,4 35
25.01.2020 22:00:00 3,0 0,0 22 12 - - ZZO 1020,5 35
25.01.2020 21:00:00 2,0 -0,3 22 12 29 16 ZZO 1021,1 22
25.01.2020 20:00:00 2,1 0,0 22 12 25 14 ZZO 1021,2 26
25.01.2020 19:00:00 2,7 -0,4 18 10 - - Z 1021,2 21
25.01.2020 18:00:00 2,9 -1,1 18 10 22 12 ZZO 1021,1 15
25.01.2020 17:00:00 4,6 0,9 11 6 14 8 Z 1020,4 30
25.01.2020 16:00:00 5,6 2,8 11 6 - - Z 1020,5 30
25.01.2020 15:00:00 7,2 3,8 7 4 22 12 WZW 1020,4 30
25.01.2020 14:00:00 5,2 2,0 11 6 22 12 Z 1021,5 24
25.01.2020 13:00:00 3,4 1,4 18 10 - - Z 1022,3 16
25.01.2020 12:00:00 2,2 0,3 22 12 25 14 ZZO 1023,0 5
25.01.2020 11:00:00 1,2 -0,7 14 8 22 12 Z 1022,9 -
25.01.2020 10:00:00 0,4 -2,7 14 8 - - ZZO 1023,0 0,6
25.01.2020 09:00:00 0,4 -0,5 11 6 18 10 ZZO 1022,6 0,8
25.01.2020 08:00:00 0,6 0,0 11 6 14 8 ZZO 1022,4 0,3
25.01.2020 07:00:00 0,7 0,2 11 6 - - Z 1022,1 0,6
25.01.2020 06:00:00 1,0 -1,2 7 4 29 16 ZZW 1021,8 0,5
25.01.2020 05:00:00 0,8 -1,1 14 8 25 14 ZZW 1022,1 1,1
25.01.2020 04:00:00 0,7 -2,4 11 6 - - ZZW 1022,5 -
25.01.2020 03:00:00 -2,2 -3,8 4 2 14 8 ZZO 1023,4 -
25.01.2020 02:00:00 -0,8 -3,0 7 4 29 16 ZZW 1023,1 -
25.01.2020 01:00:00 -1,1 -3,9 14 8 - - Z 1023,3 -
25.01.2020 00:00:00 -1,0 -4,1 7 4 25 14 ZZW 1023,5 -
24.01.2020 23:00:00 -1,6 -3,3 18 10 25 14 ZZO 1023,7 -
24.01.2020 22:00:00 -1,6 -3,8 22 12 - - ZZO 1024,0 4,5
24.01.2020 21:00:00 -1,6 -3,9 18 10 29 16 ZZO 1024,0 3,6
24.01.2020 20:00:00 -0,5 -3,3 18 10 32 18 ZZO 1023,3 -
24.01.2020 19:00:00 -1,4 -4,1 4 2 - - - 1023,6 2,4
24.01.2020 18:00:00 -0,1 -4,8 22 12 29 16 ZZO 1022,8 4,9
24.01.2020 17:00:00 0,2 -3,9 0 0 7 4 N 1023,2 -
24.01.2020 16:00:00 1,7 -2,6 4 2 - - W 1023,1 -
24.01.2020 15:00:00 1,9 -2,3 4 2 11 6 WNW 1023,1 -
24.01.2020 14:00:00 1,8 -0,8 4 2 11 6 ZW 1023,4 -
24.01.2020 13:00:00 0,4 -2,3 4 2 - - - 1024,3 -
24.01.2020 12:00:00 -1,1 -4,0 14 8 25 14 ZZO 1024,8 4,5
24.01.2020 11:00:00 -2,0 -3,8 7 4 36 19 ZO 1024,9 4,1
24.01.2020 10:00:00 -2,9 -4,8 29 16 - - ZZO 1024,6 3,6
24.01.2020 09:00:00 -3,1 -4,8 22 12 36 19 ZZO 1024,8 2,6
24.01.2020 08:00:00 -3,1 -4,5 22 12 32 18 ZZO 1024,8 1,6
24.01.2020 07:00:00 -2,9 -4,7 18 10 - - ZZO 1024,7 1,5
24.01.2020 06:00:00 -3,0 -4,5 11 6 32 18 ZO 1025,0 2,2
24.01.2020 05:00:00 -2,9 -5,1 22 12 32 18 ZZO 1025,1 2,2
24.01.2020 04:00:00 -2,8 -4,6 4 2 - - - 1025,6 2,8
24.01.2020 03:00:00 -2,6 -4,3 11 6 36 19 - 1025,8 4,1
24.01.2020 02:00:00 -2,5 -4,1 14 8 29 16 Z 1026,2 4,0
24.01.2020 01:00:00 -2,4 -4,3 11 6 - - ZZO 1026,9 2,3
24.01.2020 00:00:00 -2,3 -4,5 18 10 25 14 ZZO 1026,8 27
23.01.2020 23:00:00 -1,0 -3,8 11 6 22 12 ZO 1026,8 30
23.01.2020 22:00:00 -1,3 -3,3 11 6 - - ZO 1027,5 -
23.01.2020 21:00:00 -0,2 -2,0 7 4 14 8 ZZO 1027,2 23
23.01.2020 20:00:00 0,3 -1,5 0 0 7 4 N 1027,2 5
23.01.2020 19:00:00 -0,4 -2,3 4 2 - - ZZO 1027,9 -
23.01.2020 18:00:00 0,4 -1,4 0 0 7 4 N 1028,2 13
23.01.2020 17:00:00 2,1 -0,3 4 2 14 8 ZO 1028,1 30
23.01.2020 16:00:00 2,5 0,1 7 4 - - ZO 1028,6 35
23.01.2020 15:00:00 1,9 -0,5 11 6 18 10 ZO 1029,8 24
23.01.2020 14:00:00 1,6 -0,6 11 6 18 10 ZO 1030,6 15
23.01.2020 13:00:00 1,6 -0,9 7 4 - - ZZO 1031,3 14
23.01.2020 12:00:00 1,0 -1,8 11 6 22 12 OZO 1031,7 -
23.01.2020 11:00:00 0,0 0,0 11 6 25 14 ZO 1032,2 2,0
23.01.2020 10:00:00 -0,3 -2,5 7 4 - - OZO 1032,5 1,8
23.01.2020 09:00:00 -0,5 -1,8 32 18 43 23 ZZO 1032,6 1,7
23.01.2020 08:00:00 -0,4 -2,2 7 4 14 8 - 1033,1 3,3
23.01.2020 07:00:00 -0,2 -2,6 4 2 - - OZO 1033,3 2,1
23.01.2020 06:00:00 0,0 -2,7 7 4 14 8 OZO 1033,8 3,8
23.01.2020 05:00:00 0,3 -2,2 11 6 14 8 ONO 1034,0 3,1
23.01.2020 04:00:00 0,7 -0,1 7 4 - - OZO 1034,7 -
23.01.2020 03:00:00 1,2 -0,9 7 4 25 14 O 1035,2 -
23.01.2020 02:00:00 1,8 -0,4 11 6 22 12 O 1035,7 35
23.01.2020 01:00:00 2,1 -0,9 7 4 - - O 1036,2 45
23.01.2020 00:00:00 1,9 1,1 11 6 18 10 O 1036,4 45
22.01.2020 23:00:00 1,7 -1,6 7 4 14 8 O 1036,6 35
22.01.2020 22:00:00 1,8 0,7 7 4 - - O 1036,7 -
22.01.2020 21:00:00 1,9 0,7 14 8 22 12 ONO 1036,9 16
22.01.2020 20:00:00 2,1 -0,5 7 4 18 10 ONO 1036,5 26
22.01.2020 19:00:00 2,2 0,5 7 4 - - ONO 1036,1 45
22.01.2020 18:00:00 2,1 -0,5 11 6 22 12 O 1035,9 35
22.01.2020 17:00:00 2,3 0,3 14 8 25 14 ONO 1035,8 45
22.01.2020 16:00:00 3,4 0,1 4 2 - - NO 1035,5 45
22.01.2020 15:00:00 4,0 -0,1 14 8 29 16 ONO 1035,5 45
22.01.2020 14:00:00 3,5 -1,5 7 4 14 8 ONO 1036,1 24
22.01.2020 13:00:00 0,7 -2,8 4 2 - - NW 1036,9 11
22.01.2020 12:00:00 0,5 -3,1 4 2 25 14 NNW 1037,3 20
22.01.2020 11:00:00 -2,0 -3,2 11 6 22 12 NNO 1038,3 0,7
22.01.2020 10:00:00 -2,8 -6,4 11 6 - - NNO 1038,1 35
22.01.2020 09:00:00 -2,7 -9,1 7 4 18 10 ZZO 1037,2 50
22.01.2020 08:00:00 -1,6 -7,4 14 8 18 10 ZZO 1036,5 50
22.01.2020 07:00:00 -1,3 -7,3 4 2 - - O 1037,2 45
22.01.2020 06:00:00 -2,4 -7,9 4 2 7 4 OZO 1037,8 45
22.01.2020 05:00:00 -2,2 -9,0 4 2 7 4 O 1038,1 45
22.01.2020 04:00:00 -2,0 -8,2 4 2 - - OZO 1038,5 50
22.01.2020 03:00:00 -2,7 -9,8 7 4 14 8 ZZO 1038,9 50
22.01.2020 02:00:00 -1,9 -8,5 4 2 25 14 - 1038,9 50
22.01.2020 01:00:00 2,1 -6,2 18 10 - - ZZO 1037,8 50
22.01.2020 00:00:00 1,3 -6,8 18 10 22 12 ZZO 1038,3 45
21.01.2020 23:00:00 -1,1 -6,8 7 4 7 4 ZO 1039,9 50
21.01.2020 22:00:00 -0,7 -7,4 7 4 - - OZO 1040,1 50
21.01.2020 21:00:00 -0,9 -7,6 7 4 7 4 OZO 1040,4 45

tt = temperatuur
td = dauwpunt
ff = windsnelheid
fx = windstoten
dd = windrichting
ppp = luchtdruk
vv = zicht

Weerstations in de omgeving